一网星座-0371星 (ONEWEB-0371 )

导读

ONEWEB-0371是英国OneWeb公司低轨卫星星座组网卫星,于2021年10月14日由俄罗斯“联盟2.1b”火箭发射,本次任务共将36颗OneWeb卫星送入太空,该卫星质量约175-200kg,运行在高度约1200公里的近地极轨轨道,属于OneWeb全球低轨互联网星座的组成部分,旨在为全球各地提供高速卫星互联网接入服务,进一步推进OneWeb实现全球卫星互联组网的目标。

基本信息
目录编号:
49297
目录名称:
ONEWEB-0371
国际标识:
2021-090U
轨道中心:
EARTH
卫星名称:
一网星座-0371星
卫星全名:
一网星座-0371星 (ONEWEB-0371 )
卫星状态:
在轨 (已飞行1797 天)
发射日期:
2021-10-14 UTC
国别 :
英国 (GB)
星等 :
--
该卫星已列入 空间交会检测服务 Space Conjunction Data Service (SCDS) ,当前飞行风险评估等级: 无高风险
轨道信息
数据来源 国际轨道数据 AOE轨道数据
星历时间 2026-09-15T19:42:15+0800
11小时前
查看轨道信息
2026-09-16T00:00:00+0800
6小时前
查看轨道信息
半长轴 7563.903km 7563.899km
偏心率 0.0002196 0.0002189
轨道倾角 87.911° 87.911°
近地点辐角 93.903° 97.198°
升交点赤经 286.980° 286.943°
平近点角 266.235° 32.843°
近地点 1184.104km 1184.106km
远地点 1187.428km 1187.418km
周期 109.114分钟 109.113分钟
每日圈数 13.197263 13.197274
详细信息
平衡模式:
三轴稳定
覆盖范围:
全球
运营商:
一网卫星公司
运营商所在国:
英国
制造商(研发单位):
一网卫星公司
制造商所在国:
英国
使用方式:
暂无
卫星简介
OneWeb卫星网络由648颗重约125公斤的微型卫星组成,运行在1200公里的轨道上。 每颗卫星都能够提供至少每秒8千兆位的吞吐量,以使用其高吞吐量的Ku频段有效载荷为家庭和移动平台提供互联网接入。该卫星仍在工作。
2D轨道图
3D轨道图
轨道高度分析图
轨道倾角分析图
轨道综合分析图
查看轨道综合分析图
与全量物体交会距离演化趋势 订阅飞行安全评估服务
与全量物体交会风险概率演化趋势 订阅飞行安全评估服务